Weather History for Flag Island, MN

Change the Weather History Date:

Wednesday, December 4, 2013

  Actual Average Record
Temperature  
Mean Temperature 12 °F -  
Max Temperature 15 °F 22 °F 42 °F (2004)
Min Temperature 10 °F 11 °F -5 °F (2005)
Degree Days  
Heating Degree Days 52    
Moisture  
Dew Point 8 °F    
Average Humidity 86    
Maximum Humidity 92    
Minimum Humidity 79    
Precipitation  
Precipitation 0.00 in - - ()
Sea Level Pressure  
Sea Level Pressure 29.84 in    
Wind  
Wind Speed 11 mph (NE)    
Max Wind Speed 18 mph    
Max Gust Speed 25 mph    
Visibility 4 miles    
Events Snow    
Averages and records for this station are not official NWS values.
T = Trace of Precipitation, MM = Missing Value Source: NWS Daily Summary

Daily Weather History Graph

Daily Weather History Graph

Search for Another Location

Airport:

Trip Planner

Search our weather history database for the weather conditions in past years. The results will help you decide how hot, cold, wet, or windy it might be!

Date:

Astronomy

Dec. 04, 2013 Rise Set
Actual Time 7:57 AM CST 4:22 PM CST
Civil Twilight 7:20 AM CST 4:59 PM CST
Nautical Twilight 6:40 AM CST 5:39 PM CST
Astronomical Twilight 6:01 AM CST 6:17 PM CST
Moon 9:22 AM CST (12/4) 6:38 PM CST (12/4)
Length of Visible Light 9h 38m
Length of Day
8h 24m
Waxing Crescent, 4% of the Moon is Illuminated
Dec 4
Waxing Crescent
Dec 9
First Quarter
Dec 17
Full
Dec 25
Last Quarter
Jan 1
New

Hourly Weather History & Observations

Time (CST) Temp. Windchill Dew Point Humidity Pressure Visibility Wind Dir Wind Speed Gust Speed Precip Events Conditions
12:13 AM 15.8 °F 3.4 °F 10.4 °F 79% 30.01 in 10.0 mi ENE 10.4 mph - N/A   Overcast
12:33 AM 15.8 °F 4.2 °F 10.4 °F 79% 30.00 in 10.0 mi ENE 9.2 mph - N/A   Overcast
12:54 AM 15.8 °F 10.2 °F 10.4 °F 79% 30.02 in 10.0 mi ENE 3.5 mph - N/A   Overcast
1:09 AM 14.0 °F 5.1 °F 10.4 °F 86% 30.01 in 10.0 mi ENE 5.8 mph - N/A   Overcast
1:34 AM 14.0 °F 2.9 °F 10.4 °F 86% 30.01 in 10.0 mi NE 8.1 mph - N/A   Overcast
1:53 AM 12.2 °F -1.0 °F 8.6 °F 85% 30.01 in 10.0 mi NE 10.4 mph - N/A   Overcast
2:13 AM 12.2 °F 2.9 °F 8.6 °F 85% 30.02 in 10.0 mi NE 5.8 mph - N/A   Overcast
2:34 AM 12.2 °F 1.7 °F 8.6 °F 85% 30.02 in 10.0 mi NE 6.9 mph - N/A   Overcast
2:53 AM 12.2 °F 0.7 °F 8.6 °F 85% 30.02 in 10.0 mi NE 8.1 mph - N/A   Overcast
3:13 AM 12.2 °F -1.0 °F 8.6 °F 85% 30.02 in 10.0 mi ENE 10.4 mph - N/A   Overcast
3:33 AM 12.2 °F -1.8 °F 6.8 °F 79% 30.01 in 10.0 mi ENE 11.5 mph - N/A   Overcast
3:53 AM 12.2 °F -0.2 °F 6.8 °F 79% 30.00 in 10.0 mi ENE 9.2 mph - N/A   Overcast
4:13 AM 12.2 °F -0.2 °F 6.8 °F 79% 29.99 in 10.0 mi NE 9.2 mph - N/A   Overcast
4:33 AM 12.2 °F -1.0 °F 6.8 °F 79% 29.99 in 10.0 mi NE 10.4 mph - N/A   Overcast
4:53 AM 10.4 °F -0.4 °F 6.8 °F 85% 29.99 in 10.0 mi NE 6.9 mph - N/A   Overcast
5:13 AM 10.4 °F -4.1 °F 6.8 °F 85% 29.98 in 10.0 mi NE 11.5 mph 16.1 mph N/A   Overcast
5:33 AM 10.4 °F -4.1 °F 6.8 °F 85% 29.98 in 10.0 mi NE 11.5 mph - N/A   Overcast
5:53 AM 10.4 °F -4.1 °F 6.8 °F 85% 29.98 in 10.0 mi NE 11.5 mph - N/A   Overcast
6:13 AM 10.4 °F -4.8 °F 6.8 °F 85% 29.97 in 10.0 mi NE 12.7 mph 17.3 mph N/A   Overcast
6:33 AM 10.4 °F -4.1 °F 6.8 °F 85% 29.96 in 10.0 mi ENE 11.5 mph 18.4 mph N/A   Overcast
6:54 AM 10.4 °F -4.8 °F 6.8 °F 85% 29.96 in 10.0 mi NE 12.7 mph - N/A   Mostly Cloudy
7:13 AM 10.4 °F -4.1 °F 6.8 °F 85% 29.94 in 10.0 mi ENE 11.5 mph - N/A   Mostly Cloudy
7:33 AM 10.4 °F -4.8 °F 6.8 °F 85% 29.95 in 10.0 mi ENE 12.7 mph - N/A   Mostly Cloudy
7:53 AM 10.4 °F -2.4 °F 6.8 °F 85% 29.95 in 10.0 mi NE 9.2 mph - N/A   Overcast
8:13 AM 10.4 °F -2.4 °F 6.8 °F 85% 29.95 in 10.0 mi NE 9.2 mph - N/A   Overcast
8:33 AM 10.4 °F -2.4 °F 6.8 °F 85% 29.94 in 7.0 mi NE 9.2 mph - N/A Snow Light Snow
8:47 AM 10.4 °F -4.8 °F 6.8 °F 85% 29.94 in 2.0 mi NE 12.7 mph - N/A Snow Light Snow
9:20 AM 10.4 °F -4.8 °F 6.8 °F 85% 29.94 in 1.0 mi NE 12.7 mph 17.3 mph N/A Snow Light Snow
9:33 AM 10.4 °F -6.6 °F 6.8 °F 85% 29.93 in 1.0 mi NNE 16.1 mph - N/A Snow Light Snow
9:53 AM 10.4 °F -3.3 °F 6.8 °F 85% 29.93 in 1.8 mi NNE 10.4 mph - N/A Snow Light Snow
10:14 AM 10.4 °F -2.4 °F 8.6 °F 92% 29.93 in 1.2 mi NNE 9.2 mph - N/A Snow Light Snow
10:33 AM 10.4 °F -4.1 °F 8.6 °F 92% 29.92 in 0.8 mi NE 11.5 mph - N/A Snow Light Snow
10:53 AM 10.4 °F -5.4 °F 8.6 °F 92% 29.91 in 0.8 mi NNE 13.8 mph - N/A Snow Light Snow
11:14 AM 10.4 °F -6.6 °F 8.6 °F 92% 29.90 in 1.0 mi NE 16.1 mph 19.6 mph N/A Snow Light Snow
11:33 AM 10.4 °F -3.3 °F 8.6 °F 92% 29.88 in 1.2 mi NE 10.4 mph 16.1 mph N/A Snow Light Snow
11:53 AM 10.4 °F -4.1 °F 8.6 °F 92% 29.88 in 1.0 mi NE 11.5 mph - N/A Snow Light Snow
12:14 PM 10.4 °F -6.6 °F 6.8 °F 85% 29.86 in 1.2 mi NNE 16.1 mph - N/A Snow Light Snow
12:33 PM 10.4 °F -4.8 °F 8.6 °F 92% 29.85 in 1.0 mi NNE 12.7 mph - N/A Snow Light Snow
12:53 PM 10.4 °F -6.6 °F 8.6 °F 92% 29.84 in 1.0 mi NNE 16.1 mph - N/A Snow Light Snow
1:14 PM 10.4 °F -7.2 °F 6.8 °F 85% 29.82 in 1.0 mi NNE 17.3 mph - N/A Snow Light Snow
1:33 PM 10.4 °F -6.6 °F 8.6 °F 92% 29.81 in 1.0 mi NNE 16.1 mph - N/A Snow Light Snow
1:53 PM 10.4 °F -6.6 °F 8.6 °F 92% 29.80 in 1.0 mi NNE 16.1 mph 21.9 mph N/A Snow Light Snow
2:14 PM 10.4 °F -7.2 °F 8.6 °F 92% 29.78 in 1.0 mi NNE 17.3 mph 21.9 mph N/A Snow Light Snow
2:33 PM 10.4 °F -6.0 °F 8.6 °F 92% 29.78 in 1.2 mi NNE 15.0 mph 25.3 mph N/A Snow Light Snow
2:53 PM 12.2 °F -4.8 °F 8.6 °F 85% 29.77 in 1.5 mi NNE 17.3 mph - N/A Snow Light Snow
3:13 PM 12.2 °F -4.8 °F 8.6 °F 85% 29.77 in 1.8 mi NE 17.3 mph 23.0 mph N/A Snow Light Snow
3:33 PM 12.2 °F -4.8 °F 8.6 °F 85% 29.76 in 1.2 mi NE 17.3 mph - N/A Snow Light Snow
3:53 PM 12.2 °F -3.1 °F 8.6 °F 85% 29.76 in 1.0 mi NNE 13.8 mph 21.9 mph N/A Snow Light Snow
4:13 PM 12.2 °F -4.8 °F 8.6 °F 85% 29.74 in 1.2 mi NE 17.3 mph 23.0 mph N/A Snow Light Snow
4:34 PM 12.2 °F -4.3 °F 8.6 °F 85% 29.75 in 1.0 mi NE 16.1 mph 23.0 mph N/A Snow Light Snow
4:53 PM 12.2 °F -2.5 °F 8.6 °F 85% 29.74 in 1.8 mi NNE 12.7 mph - N/A Snow Light Snow
5:13 PM 12.2 °F -2.5 °F 8.6 °F 85% 29.73 in 1.2 mi NNE 12.7 mph - N/A Snow Light Snow
5:34 PM 12.2 °F -3.7 °F 8.6 °F 85% 29.72 in 1.2 mi NNE 15.0 mph - N/A Snow Light Snow
5:53 PM 12.2 °F -3.1 °F 8.6 °F 85% 29.70 in 1.5 mi NNE 13.8 mph - N/A Snow Light Snow
6:13 PM 12.2 °F -3.7 °F 8.6 °F 85% 29.70 in 1.5 mi NNE 15.0 mph - N/A Snow Light Snow
6:34 PM 12.2 °F -3.7 °F 8.6 °F 85% 29.69 in 1.5 mi NNE 15.0 mph 21.9 mph N/A Snow Light Snow
6:53 PM 12.2 °F -3.1 °F 8.6 °F 85% 29.69 in 1.2 mi NNE 13.8 mph 20.7 mph N/A Snow Light Snow
7:13 PM 12.2 °F -3.1 °F 10.4 °F 92% 29.68 in 1.2 mi NNE 13.8 mph - N/A Snow Light Snow
7:34 PM 12.2 °F -5.3 °F 10.4 °F 92% 29.67 in 1.2 mi NNE 18.4 mph 21.9 mph N/A Snow Light Snow
7:53 PM 12.2 °F -1.8 °F 10.4 °F 92% 29.66 in 1.0 mi NNE 11.5 mph 20.7 mph N/A Snow Snow
8:13 PM 12.2 °F -3.1 °F 10.4 °F 92% 29.65 in 1.0 mi NNE 13.8 mph - N/A Snow Snow
8:34 PM 12.2 °F -2.5 °F 10.4 °F 92% 29.64 in 1.2 mi NNE 12.7 mph - N/A Snow Light Snow
8:53 PM 12.2 °F -3.1 °F 8.6 °F 85% 29.64 in 1.2 mi NNE 13.8 mph - N/A Snow Light Snow
9:13 PM 12.2 °F -3.1 °F 8.6 °F 85% 29.63 in 1.2 mi NNE 13.8 mph - N/A Snow Light Snow
9:34 PM 12.2 °F -3.7 °F 8.6 °F 85% 29.62 in 1.2 mi NNE 15.0 mph - N/A Snow Light Snow
9:53 PM 12.2 °F -4.3 °F 8.6 °F 85% 29.62 in 1.2 mi North 16.1 mph - N/A Snow Light Snow
10:13 PM 12.2 °F -3.1 °F 8.6 °F 85% 29.63 in 1.2 mi North 13.8 mph - N/A Snow Light Snow
10:34 PM 12.2 °F -3.1 °F 8.6 °F 85% 29.62 in 1.2 mi North 13.8 mph - N/A Snow Light Snow
10:53 PM 12.2 °F -2.5 °F 8.6 °F 85% 29.63 in 1.2 mi North 12.7 mph - N/A Snow Light Snow
11:13 PM 12.2 °F -1.8 °F 8.6 °F 85% 29.63 in 1.2 mi North 11.5 mph - N/A Snow Light Snow
11:33 PM 12.2 °F -3.1 °F 8.6 °F 85% 29.63 in 1.2 mi North 13.8 mph - N/A Snow Light Snow
11:53 PM 12.2 °F -2.5 °F 8.6 °F 85% 29.63 in 1.2 mi North 12.7 mph - N/A Snow Light Snow